(64) Angelina
ephemeris date magn radius delta ra dec elong phase
Today11 May 202513.53.017 AU2.889 AU21h40m-14°02'87.4°19.5°
Opposition12 Aug 202511.73.014 AU2.001 AU21h27m-14°34'179.6°0.1°
(64) Angelina - 2025-05-11
astro.vanbuitenen.nl


 
-1 year
-1 month
-1 day
Now
+1 day
+1 month
+1 year

The interactive orbit chart above shows the body's path through the solar system and its position at the given date. Green and blue lines are shown perpendicular to the ecliptic plane: Green if the path is above the ecliptic plane, blue if it is below. (Left-click and drag to rotate the view; Right-click and drag to move the view; Use scroll wheel to zoom in our out.)

The orbital elements of Angelina are:

            e (Eccentricity)                : 0.1263913
            a (Semimajor axis)              : 2.6813521
            i (Inclination)                 : 1.30576
            Ω (Longitude of ascending node) : 308.95639
            ω (Argument of perihelion)      : 181.02655
            M (Mean anomaly)                : 170.05788
            Epoch                           : 2025 May 05

            L (Longitude of perihelion)     : 309.98267
            B (Latitude of perihelion)      : -0.02339
            P (Orbital period in years)     : 4.39            
        

The light curve chart below shows the estimated development of the minor planet's magnitude.


The all-sky chart below shows the path of the minor planet over the same period as the light curve. The current position is marked yellow.





The following chart shows the path of the minor planet in the next few days. The field of view is optimized for (~10x50) binoculars and finderscopes. A more printer-friendly version of the same chart can be found below.




Ephemerides:
Date       Time       RA (2000)    DEC (2000)    delta   radius  elong  phase   PA    magn
2025-05-11 00:00 UT   21 40 44.0   -14 02 52     2.889    3.017   87.4   19.5   251   13.5 
2025-05-11 02:52 UT   21 40 49.3   -14 02 24     2.887    3.017   87.5   19.5   251   13.5 
2025-05-12 00:00 UT   21 41 28.0   -13 58 57     2.875    3.017   88.2   19.5   251   13.4 
2025-05-13 00:00 UT   21 42 11.2   -13 55 05     2.861    3.018   89.0   19.6   251   13.4 
2025-05-14 00:00 UT   21 42 53.5   -13 51 18     2.848    3.018   89.8   19.6   251   13.4 
2025-05-15 00:00 UT   21 43 34.9   -13 47 34     2.834    3.018   90.5   19.6   251   13.4 
2025-05-16 00:00 UT   21 44 15.3   -13 43 54     2.820    3.018   91.3   19.6   251   13.4 
2025-05-17 00:00 UT   21 44 54.8   -13 40 19     2.806    3.018   92.1   19.6   251   13.4 
2025-05-18 00:00 UT   21 45 33.3   -13 36 48     2.793    3.018   92.9   19.6   251   13.4 
2025-05-19 00:00 UT   21 46 10.9   -13 33 21     2.779    3.018   93.7   19.5   251   13.4 
2025-05-20 00:00 UT   21 46 47.5   -13 29 58     2.765    3.018   94.5   19.5   251   13.4 
2025-05-21 00:00 UT   21 47 23.0   -13 26 40     2.751    3.019   95.3   19.5   251   13.4 
2025-05-22 00:00 UT   21 47 57.6   -13 23 27     2.738    3.019   96.2   19.5   251   13.3 
2025-05-23 00:00 UT   21 48 31.2   -13 20 19     2.724    3.019   97.0   19.4   250   13.3 
2025-05-24 00:00 UT   21 49 03.7   -13 17 15     2.710    3.019   97.8   19.4   250   13.3 
2025-05-25 00:00 UT   21 49 35.1   -13 14 17     2.696    3.019   98.6   19.4   250   13.3 
2025-05-26 00:00 UT   21 50 05.5   -13 11 23     2.683    3.019   99.4   19.3   250   13.3 
2025-05-27 00:00 UT   21 50 34.9   -13 08 35     2.669    3.019  100.3   19.3   250   13.3 
2025-05-28 00:00 UT   21 51 03.1   -13 05 51     2.656    3.019  101.1   19.2   250   13.3 
2025-05-29 00:00 UT   21 51 30.2   -13 03 14     2.642    3.019  102.0   19.2   250   13.3 
2025-05-30 00:00 UT   21 51 56.3   -13 00 41     2.629    3.019  102.8   19.1   250   13.2 
2025-05-31 00:00 UT   21 52 21.2   -12 58 14     2.615    3.020  103.6   19.0   250   13.2 
2025-06-01 00:00 UT   21 52 45.0   -12 55 53     2.602    3.020  104.5   19.0   250   13.2 
2025-06-02 00:00 UT   21 53 07.6   -12 53 37     2.588    3.020  105.4   18.9   250   13.2 
2025-06-03 00:00 UT   21 53 29.1   -12 51 27     2.575    3.020  106.2   18.8   250   13.2 
2025-06-04 00:00 UT   21 53 49.5   -12 49 23     2.562    3.020  107.1   18.7   250   13.2 
2025-06-05 00:00 UT   21 54 08.7   -12 47 25     2.549    3.020  108.0   18.6   250   13.2 
2025-06-06 00:00 UT   21 54 26.7   -12 45 32     2.535    3.020  108.8   18.5   250   13.1 
2025-06-07 00:00 UT   21 54 43.5   -12 43 46     2.522    3.020  109.7   18.4   250   13.1 
2025-06-08 00:00 UT   21 54 59.1   -12 42 05     2.509    3.020  110.6   18.3   250   13.1 
2025-06-09 00:00 UT   21 55 13.5   -12 40 31     2.496    3.020  111.5   18.2   250   13.1 
2025-06-10 00:00 UT   21 55 26.7   -12 39 03     2.484    3.020  112.4   18.1   250   13.1 


    Terminology:
            
    delta:  distance between minor planet and earth in AU
    radius: distance between minor planet and sun in AU
    magn:   magnitude (brightness) estimate    
    ra:     right ascension in hours (24h = 360deg)
    dec:    declination in degrees
    elong:  elongation in degrees (angle sun-earth-minor planet)    
    phase:  phase angle in degrees (angle sun-minor planet-earth)        
    AU:     Astronomical Unit (mean distance between earth and sun: 149597870.7 km
    

Orbital elements provided by the MPC (Minor Planet Center).
Calculations by a modified version of AAPlus, a C# implementation of the AA+ project by PJ Naughter from the algorithms presented in the book "Astronomical Algorithms" by Jean Meeus.
NGC2000 dso catalog and star labels from VizieR as provided by the Strasbourg astronomical Data Center.
Tycho2 catalog from the ESO archive.